Time,TemperatureF,DewpointF,PressureIn,WindDirection,WindDirectionDegrees,WindSpeedMPH,WindSpeedGustMPH,Humidity,HourlyPrecipIn,Conditions,Clouds,dailyrainin,SoftwareType,DateUTC
2013-07-28 00:02:00,51.0,45.0,-100.00,NNW,340,0.0,4.0,79,0.00,,,-99.99,,2013-07-28 05:02:00,
2013-07-28 00:12:00,51.0,45.0,-100.00,NNW,340,0.0,4.0,79,0.00,,,-99.99,,2013-07-28 05:12:00,
2013-07-28 00:43:00,51.0,44.0,-100.00,NW,315,1.0,7.0,79,0.00,,,-99.99,,2013-07-28 05:43:00,
2013-07-28 00:53:00,51.0,44.0,-100.00,NW,315,1.0,7.0,79,0.00,,,-99.99,,2013-07-28 05:53:00,
2013-07-28 01:02:00,51.0,44.0,-100.00,NW,315,1.0,7.0,79,0.00,,,-99.99,,2013-07-28 06:02:00,
2013-07-28 01:12:00,51.0,44.0,-100.00,NW,315,1.0,7.0,79,0.00,,,-99.99,,2013-07-28 06:12:00,
2013-07-28 01:32:00,51.0,44.0,-100.00,North,0,1.0,6.0,79,0.00,,,-99.99,,2013-07-28 06:32:00,
2013-07-28 01:43:00,51.0,44.0,-100.00,North,0,1.0,6.0,79,0.00,,,-99.99,,2013-07-28 06:43:00,
2013-07-28 01:53:00,51.0,44.0,-100.00,North,0,1.0,6.0,79,0.00,,,-99.99,,2013-07-28 06:53:00,
2013-07-28 02:02:00,51.0,44.0,-100.00,North,0,1.0,6.0,79,0.00,,,-99.99,,2013-07-28 07:02:00,
2013-07-28 02:12:00,51.0,44.0,-100.00,North,0,1.0,6.0,79,0.00,,,-99.99,,2013-07-28 07:12:00,
2013-07-28 02:32:00,51.0,44.0,-100.00,NNW,340,2.0,7.0,79,0.00,,,-99.99,,2013-07-28 07:32:00,
2013-07-28 02:43:00,51.0,44.0,-100.00,NNW,340,2.0,7.0,79,0.00,,,-99.99,,2013-07-28 07:43:00,
2013-07-28 02:53:00,51.0,44.0,-100.00,NNW,340,2.0,7.0,79,0.00,,,-99.99,,2013-07-28 07:53:00,
2013-07-28 03:02:00,51.0,44.0,-100.00,NNW,340,2.0,7.0,79,0.00,,,-99.99,,2013-07-28 08:02:00,
2013-07-28 03:12:00,51.0,44.0,-100.00,NNW,340,2.0,7.0,79,0.00,,,-99.99,,2013-07-28 08:12:00,
2013-07-28 03:43:00,51.0,44.0,-100.00,WNW,300,3.0,7.0,79,0.00,,,-99.99,,2013-07-28 08:43:00,
2013-07-28 03:53:00,51.0,44.0,-100.00,WNW,300,3.0,7.0,79,0.00,,,-99.99,,2013-07-28 08:53:00,
2013-07-28 04:02:00,51.0,44.0,-100.00,WNW,300,3.0,7.0,79,0.00,,,-99.99,,2013-07-28 09:02:00,
2013-07-28 04:12:00,51.0,44.0,-100.00,WNW,300,3.0,7.0,79,0.00,,,-99.99,,2013-07-28 09:12:00,
2013-07-28 04:43:00,50.0,43.0,-100.00,NNW,330,1.0,7.0,78,0.00,,,-99.99,,2013-07-28 09:43:00,
2013-07-28 04:53:00,50.0,43.0,-100.00,NNW,330,1.0,7.0,78,0.00,,,-99.99,,2013-07-28 09:53:00,
2013-07-28 05:02:00,50.0,43.0,-100.00,NNW,330,1.0,7.0,78,0.00,,,-99.99,,2013-07-28 10:02:00,
2013-07-28 05:12:00,50.0,43.0,-100.00,NNW,330,1.0,7.0,78,0.00,,,-99.99,,2013-07-28 10:12:00,
2013-07-28 05:33:00,49.0,42.0,-100.00,NW,305,2.0,7.0,77,0.00,,,-99.99,,2013-07-28 10:33:00,
2013-07-28 05:42:00,49.0,42.0,-100.00,NW,305,2.0,7.0,77,0.00,,,-99.99,,2013-07-28 10:42:00,
2013-07-28 05:53:00,49.0,42.0,-100.00,NW,305,2.0,7.0,77,0.00,,,-99.99,,2013-07-28 10:53:00,
2013-07-28 06:02:00,49.0,42.0,-100.00,NW,305,2.0,7.0,77,0.00,,,-99.99,,2013-07-28 11:02:00,
2013-07-28 06:12:00,49.0,42.0,-100.00,NW,305,2.0,7.0,77,0.00,,,-99.99,,2013-07-28 11:12:00,
2013-07-28 06:33:00,47.0,40.0,-100.00,NW,325,1.0,6.0,76,0.00,,,-99.99,,2013-07-28 11:33:00,
2013-07-28 06:43:00,47.0,40.0,-100.00,NW,325,1.0,6.0,76,0.00,,,-99.99,,2013-07-28 11:43:00,
2013-07-28 06:54:00,47.0,40.0,-100.00,NW,325,1.0,6.0,76,0.00,,,-99.99,,2013-07-28 11:54:00,
2013-07-28 07:02:00,47.0,40.0,-100.00,NW,325,1.0,6.0,76,0.00,,,-99.99,,2013-07-28 12:02:00,
2013-07-28 07:12:00,47.0,40.0,-100.00,NW,325,1.0,6.0,76,0.00,,,-99.99,,2013-07-28 12:12:00,
2013-07-28 07:33:00,49.0,42.0,-100.00,NW,310,1.0,6.0,77,0.00,,,-99.99,,2013-07-28 12:33:00,
2013-07-28 07:43:00,49.0,42.0,-100.00,NW,310,1.0,6.0,77,0.00,,,-99.99,,2013-07-28 12:43:00,
2013-07-28 07:53:00,49.0,42.0,-100.00,NW,310,1.0,6.0,77,0.00,,,-99.99,,2013-07-28 12:53:00,
2013-07-28 08:02:00,49.0,42.0,-100.00,NW,310,1.0,6.0,77,0.00,,,-99.99,,2013-07-28 13:02:00,
2013-07-28 08:12:00,49.0,42.0,-100.00,NW,310,1.0,6.0,77,0.00,,,-99.99,,2013-07-28 13:12:00,
2013-07-28 08:43:00,51.0,42.0,-100.00,NNE,25,1.0,6.0,71,0.00,,,-99.99,,2013-07-28 13:43:00,
2013-07-28 08:53:00,51.0,42.0,-100.00,NNE,25,1.0,6.0,71,0.00,,,-99.99,,2013-07-28 13:53:00,
2013-07-28 09:02:00,51.0,42.0,-100.00,NNE,25,1.0,6.0,71,0.00,,,-99.99,,2013-07-28 14:02:00,
2013-07-28 09:12:00,51.0,42.0,-100.00,NNE,25,1.0,6.0,71,0.00,,,-99.99,,2013-07-28 14:12:00,
2013-07-28 09:13:00,55.0,42.0,-100.00,NW,315,4.0,9.0,63,0.00,,,-99.99,,2013-07-28 14:13:00,
2013-07-28 09:33:00,55.0,42.0,-100.00,NW,315,4.0,9.0,63,0.00,,,-99.99,,2013-07-28 14:33:00,
2013-07-28 09:43:00,55.0,42.0,-100.00,NW,315,4.0,9.0,63,0.00,,,-99.99,,2013-07-28 14:43:00,
2013-07-28 09:53:00,55.0,42.0,-100.00,NW,315,4.0,9.0,63,0.00,,,-99.99,,2013-07-28 14:53:00,
2013-07-28 10:03:00,55.0,42.0,-100.00,NW,315,4.0,9.0,63,0.00,,,-99.99,,2013-07-28 15:03:00,
2013-07-28 11:33:00,58.0,42.0,-100.00,NW,310,4.0,10.0,56,0.00,,,-99.99,,2013-07-28 16:33:00,
2013-07-28 19:12:00,59.0,45.0,-100.00,North,0,10.0,20.0,60,0.00,,,-99.99,,2013-07-29 00:12:00,
2013-07-28 19:32:00,59.0,47.0,-100.00,WNW,300,2.0,10.0,66,0.00,,,-99.99,,2013-07-29 00:32:00,
2013-07-28 19:43:00,59.0,47.0,-100.00,WNW,300,2.0,10.0,66,0.00,,,-99.99,,2013-07-29 00:43:00,
2013-07-28 19:52:00,59.0,47.0,-100.00,WNW,300,2.0,10.0,66,0.00,,,-99.99,,2013-07-29 00:52:00,
2013-07-28 20:02:00,59.0,47.0,-100.00,WNW,300,2.0,10.0,66,0.00,,,-99.99,,2013-07-29 01:02:00,
2013-07-28 20:14:00,58.0,47.0,-100.00,NW,305,2.0,12.0,65,0.00,,,-99.99,,2013-07-29 01:14:00,
2013-07-28 20:39:00,58.0,47.0,-100.00,NW,305,2.0,12.0,65,0.00,,,-99.99,,2013-07-29 01:39:00,
2013-07-28 20:47:00,58.0,47.0,-100.00,NW,305,2.0,12.0,65,0.00,,,-99.99,,2013-07-29 01:47:00,
2013-07-28 21:05:00,58.0,47.0,-100.00,NW,305,2.0,12.0,65,0.00,,,-99.99,,2013-07-29 02:05:00,
2013-07-28 21:14:00,58.0,46.0,-100.00,NW,305,2.0,7.0,65,0.00,,,-99.99,,2013-07-29 02:14:00,
2013-07-28 21:49:00,58.0,46.0,-100.00,NW,305,2.0,7.0,65,0.00,,,-99.99,,2013-07-29 02:49:00,
2013-07-28 21:58:00,58.0,46.0,-100.00,NW,305,2.0,7.0,65,0.00,,,-99.99,,2013-07-29 02:58:00,
2013-07-28 22:03:00,58.0,46.0,-100.00,NW,305,2.0,7.0,65,0.00,,,-99.99,,2013-07-29 03:03:00,
2013-07-28 22:37:00,58.0,47.0,-100.00,North,0,5.0,9.0,68,0.00,,,-99.99,,2013-07-29 03:37:00,
2013-07-28 22:50:00,58.0,47.0,-100.00,North,0,5.0,9.0,68,0.00,,,-99.99,,2013-07-29 03:50:00,
2013-07-28 22:58:00,58.0,47.0,-100.00,North,0,5.0,9.0,68,0.00,,,-99.99,,2013-07-29 03:58:00,
2013-07-28 23:02:00,58.0,47.0,-100.00,North,0,5.0,9.0,68,0.00,,,-99.99,,2013-07-29 04:02:00,
2013-07-28 23:12:00,58.0,47.0,-100.00,North,0,5.0,9.0,68,0.00,,,-99.99,,2013-07-29 04:12:00,
2013-07-28 23:32:00,56.0,46.0,-100.00,North,-999,-999.0,-999.0,68,0.00,,,-99.99,,2013-07-29 04:32:00,
2013-07-28 23:43:00,55.0,46.0,-100.00,WNW,290,2.0,7.0,70,0.00,,,-99.99,,2013-07-29 04:43:00,
2013-07-28 23:53:00,55.0,46.0,-100.00,WNW,290,2.0,7.0,70,0.00,,,-99.99,,2013-07-29 04:53:00,